Sheldon, IA

6:42 AM CST on February 24, 2017 (GMT -0600)
Sheldon Municipal

Weather History for KSHL - August, 2014

Change the Weather History Date:

Thursday, August 28, 2014

  Actual Average Record
Temperature  
Mean Temperature 68 °F -  
Max Temperature 71 °F 79 °F 98 °F (1984)
Min Temperature 66 °F 56 °F 39 °F (1986)
Cooling Degree Days 4    
Growing Degree Days 18 (Base 50)    
Moisture  
Dew Point 68 °F    
Average Humidity 98    
Maximum Humidity 100    
Minimum Humidity 94    
Precipitation  
Precipitation 0.00 in - - ()
Sea Level Pressure  
Sea Level Pressure 29.94 in    
Wind  
Wind Speed 7 mph (ESE)    
Max Wind Speed 12 mph    
Max Gust Speed 18 mph    
Visibility 8 miles    
Events Rain    
Averages and records for this station are not official NWS values.
T = Trace of Precipitation, MM = Missing Value Source: NWS Daily Summary

Daily Weather History Graph

Daily Weather History Graph

Search for Another Location

Airport or City:

Trip Planner

Search our weather history database for the weather conditions in past years. The results will help you decide how hot, cold, wet, or windy it might be!

Date:

Astronomy

Aug. 28, 2014 Rise Set
Actual Time 6:43 AM CDT 8:05 PM CDT
Civil Twilight 6:13 AM CDT 8:34 PM CDT
Nautical Twilight 5:37 AM CDT 9:10 PM CDT
Astronomical Twilight 4:59 AM CDT 9:47 PM CDT
Moon 9:42 AM CDT (8/28) 9:23 PM CDT (8/28)
Length of Visible Light 14h 21m
Length of Day
13h 21m
Waxing Crescent, 9% of the Moon is Illuminated
Aug 28
Waxing Crescent
Sep 2
First Quarter
Sep 8
Full
Sep 15
Last Quarter
Sep 24
New

Hourly Weather History & Observations

Time (CDT) Temp. Dew Point Humidity Pressure Visibility Wind Dir Wind Speed Gust Speed Precip Events Conditions
12:15 AM 66.2 °F 64.4 °F 94% 30.08 in 10.0 mi East 4.6 mph - N/A   Overcast
12:35 AM 66.2 °F 66.2 °F 100% 30.08 in 10.0 mi ESE 5.8 mph - N/A   Overcast
12:55 AM 66.2 °F 66.2 °F 100% 30.07 in 10.0 mi ESE 5.8 mph - N/A   Mostly Cloudy
1:15 AM 66.2 °F 66.2 °F 100% 30.06 in 10.0 mi ESE 5.8 mph - N/A   Overcast
1:35 AM 66.2 °F 64.4 °F 94% 30.06 in 10.0 mi ESE 6.9 mph - N/A   Overcast
1:55 AM 66.2 °F 64.4 °F 94% 30.06 in 10.0 mi East 5.8 mph - N/A   Overcast
2:15 AM 66.2 °F 66.2 °F 100% 30.05 in 10.0 mi ESE 5.8 mph - N/A   Overcast
2:35 AM 66.2 °F 66.2 °F 100% 30.04 in 10.0 mi East 6.9 mph - N/A   Overcast
2:55 AM 66.2 °F 64.4 °F 94% 30.04 in 10.0 mi ESE 6.9 mph - N/A   Overcast
3:15 AM 66.2 °F 64.4 °F 94% 30.03 in 10.0 mi East 5.8 mph - N/A   Overcast
3:35 AM 66.2 °F 64.4 °F 94% 30.03 in 10.0 mi East 6.9 mph - N/A   Overcast
3:55 AM 66.2 °F 64.4 °F 94% 30.02 in 10.0 mi East 8.1 mph - N/A   Overcast
4:15 AM 66.2 °F 64.4 °F 94% 30.01 in 10.0 mi ESE 6.9 mph - N/A   Overcast
4:35 AM 66.2 °F 64.4 °F 94% 30.01 in 10.0 mi ESE 6.9 mph - N/A   Overcast
4:55 AM 66.2 °F 66.2 °F 100% 30.00 in 10.0 mi ESE 8.1 mph - N/A   Overcast
5:15 AM 66.2 °F 66.2 °F 100% 30.00 in 9.0 mi ESE 8.1 mph - N/A   Overcast
5:35 AM 66.2 °F 66.2 °F 100% 30.00 in 4.0 mi ESE 5.8 mph 11.5 mph N/A Rain Light Rain
5:55 AM 66.2 °F 66.2 °F 100% 29.99 in 4.0 mi ESE 5.8 mph - N/A   Light Drizzle
6:15 AM 66.2 °F 66.2 °F 100% 29.99 in 4.0 mi ESE 6.9 mph - N/A Rain Light Rain
6:35 AM 66.2 °F 66.2 °F 100% 29.99 in 4.0 mi ESE 6.9 mph - N/A   Overcast
6:55 AM 66.2 °F 66.2 °F 100% 29.99 in 4.0 mi ESE 9.2 mph - N/A Rain Light Rain
7:15 AM 66.2 °F 66.2 °F 100% 29.99 in 3.0 mi SE 6.9 mph - N/A   Overcast
7:35 AM 66.2 °F 66.2 °F 100% 29.99 in 2.5 mi ESE 8.1 mph - N/A Rain Light Rain
7:55 AM 66.2 °F 66.2 °F 100% 29.99 in 1.0 mi ESE 9.2 mph - N/A Rain Heavy Rain
8:15 AM 66.2 °F 66.2 °F 100% 29.98 in 2.0 mi ESE 9.2 mph - N/A Rain Light Rain
8:35 AM 66.2 °F 66.2 °F 100% 29.98 in 3.0 mi ESE 8.1 mph 13.8 mph N/A Rain Light Rain
8:55 AM 66.2 °F 66.2 °F 100% 29.97 in 5.0 mi East 8.1 mph - N/A   Overcast
9:15 AM 66.2 °F 66.2 °F 100% 29.97 in 4.0 mi East 6.9 mph - N/A Rain Light Rain
9:55 AM 66.2 °F 66.2 °F 100% 29.97 in 10.0 mi East 6.9 mph - N/A   Mostly Cloudy
10:15 AM 66.2 °F 66.2 °F 100% 29.97 in 10.0 mi ESE 8.1 mph 13.8 mph N/A   Overcast
10:35 AM 68.0 °F 68.0 °F 100% 29.97 in 10.0 mi ESE 9.2 mph - N/A   Overcast
10:55 AM 68.0 °F 66.2 °F 94% 29.96 in 9.0 mi SE 10.4 mph 17.3 mph N/A   Overcast
11:15 AM 68.0 °F 68.0 °F 100% 29.96 in 5.0 mi SE 11.5 mph 18.4 mph N/A   Overcast
11:35 AM 68.0 °F 68.0 °F 100% 29.96 in 3.0 mi SE 8.1 mph - N/A   Mostly Cloudy
11:55 AM 68.0 °F 68.0 °F 100% 29.95 in 8.0 mi SE 10.4 mph - N/A   Mostly Cloudy
12:15 PM 69.8 °F 68.0 °F 94% 29.94 in 10.0 mi SE 9.2 mph - N/A   Overcast
12:35 PM 69.8 °F 68.0 °F 94% 29.94 in 10.0 mi SE 8.1 mph 16.1 mph N/A   Overcast
12:55 PM 69.8 °F 68.0 °F 94% 29.93 in 3.0 mi SE 8.1 mph 15.0 mph N/A   Overcast
1:15 PM 68.0 °F 68.0 °F 100% 29.92 in 7.0 mi ESE 8.1 mph - N/A   Mostly Cloudy
1:35 PM 69.8 °F 68.0 °F 94% 29.91 in 3.0 mi ESE 9.2 mph - N/A   Mostly Cloudy
1:55 PM 69.8 °F 68.0 °F 94% 29.91 in 10.0 mi SE 11.5 mph - N/A   Mostly Cloudy
2:15 PM 69.8 °F 68.0 °F 94% 29.91 in 10.0 mi SE 9.2 mph 15.0 mph N/A   Overcast
2:35 PM 69.8 °F 68.0 °F 94% 29.91 in 10.0 mi SE 8.1 mph - N/A   Overcast
2:55 PM 69.8 °F 68.0 °F 94% 29.90 in 10.0 mi ESE 8.1 mph 18.4 mph N/A   Overcast
3:15 PM 69.8 °F 69.8 °F 100% 29.89 in 10.0 mi SE 8.1 mph - N/A   Overcast
3:35 PM 69.8 °F 69.8 °F 100% 29.89 in 10.0 mi ESE 8.1 mph - N/A   Overcast
3:55 PM 71.6 °F 69.8 °F 94% 29.88 in 10.0 mi East 8.1 mph - N/A   Overcast
4:15 PM 71.6 °F 69.8 °F 94% 29.88 in 10.0 mi Variable 6.9 mph - N/A   Overcast
4:35 PM 71.6 °F 69.8 °F 94% 29.87 in 10.0 mi East 6.9 mph - N/A   Mostly Cloudy
4:55 PM 71.6 °F 69.8 °F 94% 29.87 in 6.0 mi East 6.9 mph - N/A   Mostly Cloudy
5:15 PM 71.6 °F 69.8 °F 94% 29.87 in 10.0 mi East 6.9 mph - N/A   Mostly Cloudy
5:35 PM 71.6 °F 69.8 °F 94% 29.86 in 10.0 mi East 8.1 mph - N/A   Overcast
5:55 PM 71.6 °F 69.8 °F 94% 29.86 in - East 8.1 mph - N/A   Unknown
6:15 PM 71.6 °F 71.6 °F 100% 29.86 in 10.0 mi East 9.2 mph - N/A   Overcast
6:35 PM 71.6 °F 71.6 °F 100% 29.85 in 9.0 mi Variable 6.9 mph 12.7 mph N/A   Mostly Cloudy
6:55 PM 71.6 °F 69.8 °F 94% 29.85 in 8.0 mi East 10.4 mph - N/A   Mostly Cloudy
7:15 PM 69.8 °F 69.8 °F 100% 29.85 in 7.0 mi ENE 5.8 mph - N/A   Mostly Cloudy
7:35 PM 69.8 °F 69.8 °F 100% 29.84 in 6.0 mi ENE 5.8 mph - N/A   Overcast
7:55 PM 69.8 °F 69.8 °F 100% 29.84 in 6.0 mi ENE 5.8 mph - N/A   Mostly Cloudy
8:15 PM 69.8 °F 69.8 °F 100% 29.84 in 6.0 mi East 3.5 mph - N/A   Overcast
8:35 PM 69.8 °F 69.8 °F 100% 29.83 in 6.0 mi ESE 4.6 mph - N/A   Mostly Cloudy
8:55 PM 69.8 °F 69.8 °F 100% 29.83 in 6.0 mi East 5.8 mph - N/A   Overcast
9:15 PM 71.6 °F 71.6 °F 100% 29.85 in 5.0 mi ESE 6.9 mph - N/A   Overcast
9:35 PM 71.6 °F 71.6 °F 100% 29.85 in 6.0 mi SE 5.8 mph - N/A   Overcast
9:55 PM 71.6 °F 71.6 °F 100% 29.85 in 7.0 mi SE 8.1 mph - N/A   Overcast
10:15 PM 71.6 °F 71.6 °F 100% 29.85 in 7.0 mi SE 6.9 mph - N/A   Overcast
10:35 PM 71.6 °F 71.6 °F 100% 29.85 in 6.0 mi SE 6.9 mph - N/A   Overcast
10:55 PM 71.6 °F 71.6 °F 100% 29.84 in 6.0 mi SE 6.9 mph - N/A   Overcast
11:15 PM 71.6 °F 71.6 °F 100% 29.84 in 6.0 mi SE 9.2 mph - N/A   Overcast
11:35 PM 71.6 °F 71.6 °F 100% 29.84 in 6.0 mi SSE 6.9 mph - N/A   Overcast
11:55 PM 71.6 °F 71.6 °F 100% 29.83 in 6.0 mi SSE 9.2 mph - N/A   Mostly Cloudy